Location: Buttermere
(51.3333°N, 1.5167°W)
Time: 22:52:17
(UTC+00:00)

Cosmos 1782 Rocket - Pass Details

Date: 18 September 2020
Orbit: 607 x 632 km, 82.5° (Epoch: 21 October)

Event Time Altitude Azimuth Distance (km) Brightness Sun altitude
Rises 18:43:10 0° 174° (S) 2,885 6.8 -5.6°
Reaches altitude 10° 18:45:25 10° 170° (S) 1,988 6.0 -5.9°
Maximum altitude 18:49:41 51° 94° (E) 791 3.7 -6.6°
Drops below altitude 10° 18:54:01 10° 19° (NNE) 2,018 6.1 -7.2°
Sets 18:56:18 0° 15° (NNE) 2,934 7.0 -7.6°
